Terug naar catalogus

STARLINK-5204

ActiefCommunicatieVLEO
NORAD 54101·PAYLOAD·🇺🇸 United States

Gelanceerd Oct 20, 2022 vanaf Cape Canaveral Space Force Station

Loading…

Volgende Passages (komende 24 uur)

TLE

VersSource: CelesTrak SupGP

Epoch: Sep 14, 2026, 21:10 UTC

1 54101C 22136BC  26257.88243056 -.00018629  00000+0 -59895-3 0  2576
2 54101  53.1589 176.9931 0001381  94.0545 140.6595 15.31717380    17

Volg STARLINK-5204 in realtime met AllMySat

Download on the App Store